Location: Montreal
(45.5000°N, 73.5833°W)
Time: 05:50:53
(UTC-05:00)

ISS - Pass Details

Date: 13 October 2017
Orbit: 402 x 407 km, 51.6° (Epoch: 22 November)

Event Time Altitude Azimuth Distance (km) Brightness Sun altitude
Rises 20:08:15 0° 290° (WNW) 2,334 1.5 -21.1°
Reaches altitude 10° 20:10:40 10° 273° (W) 1,471 0.1 -21.5°
Maximum altitude 20:13:12 21° 223° (SW) 992 -1.6 -22.0°
Enters shadow 20:13:52 19° 205° (SSW) 1,032 -1.7 -22.1°
